Regional Weather Roundup
Issued by NWS Cleveland, OH

Home | Current Version | Previous Version | Text Only | Print | Product List | Glossary Off
Versions: 1 2 3 4 5 6 7 8 9 10 11 12 13 14 15 16 17 18 19 20 21 22 23 24 25 26 27 28 29 30 31 32 33 34 35 36 37 38 39 40 41 42 43 44 45 46 47 48 49 50

000
ASUS41 KCLE 220900
RWRCLE
OHIO REGIONAL WEATHER ROUNDUP
NATIONAL WEATHER SERVICE WILMINGTON, OH
500 AM EDT FRI AUG 22 2014

NOTE: "FAIR" INDICATES FEW OR NO CLOUDS BELOW 12,000 FEET WITH NO
SIGNIFICANT WEATHER AND/OR OBSTRUCTIONS TO VISIBILITY.

OHZ001>008-015>018-024>027-034-035-043-044-221000-
   NORTHWEST OHIO

CITY           SKY/WX    TMP DP  RH WIND       PRES   REMARKS
DEFIANCE       PTCLDY    69  66  90 CALM      29.97R FOG
FINDLAY        CLOUDY    72  69  90 S6        29.96S FOG
TOLEDO EXPRESS CLOUDY    69  69 100 S6        29.95R
TOLEDO METCALF CLOUDY    71  68  90 S6        29.96R
LIMA           MOCLDY    70  68  93 SE3       29.97S FOG
$$

OHZ009>014-019>023-028>033-038-089-221000-
   NORTHEAST OHIO

CITY           SKY/WX    TMP DP  RH WIND       PRES   REMARKS
CLE-HOPKINS    CLOUDY    71  67  87 S7        29.97F
CLE-LAKEFRONT  CLOUDY    73  68  84 S7        29.93F
CUY CO. ARPT   NOT AVBL
LORAIN-ELYRIA  MOCLDY    72  67  84 S5        29.96F
ASHTABULA      FOG       68  67  96 CALM      29.96F VSB 1/4
AKRON-CANTON   CLOUDY    70  66  87 S3        29.98S
WOOSTER        NOT AVBL
MANSFIELD      CLOUDY    70  69  97 CALM      29.99S
YOUNGSTOWN     FOG       67  66  97 SW3       29.98S VSB 1/2
$$

OHZ042-051>053-060>062-070>072-077>081-221000-
  SOUTHWEST OHIO

CITY           SKY/WX    TMP DP  RH WIND       PRES   REMARKS
CINC-COVINGTON CLOUDY    70  68  93 S5        30.00S FOG
CINC-LUNKEN    MOCLDY    69  69 100 E3        30.00R FOG
HAMILTON       MOCLDY    70  70 100 CALM      29.99S FOG
DAYTON         CLOUDY    73  66  78 N8        30.00R
WRIGHT-PAT AFB NOT AVBL
DAYTON GENERAL CLOUDY    70  69  97 SW5       29.98R
WILMINGTON     CLOUDY    70  67  90 W6        29.98S
$$

OHZ036-037-039>041-045>050-054>059-063>069-073>076-082>088-221000-
  CENTRAL AND SOUTHEAST OHIO

CITY           SKY/WX    TMP DP  RH WIND       PRES   REMARKS
COLUMBUS       MOCLDY    71  67  87 CALM      29.98R
OSU AIRPORT    MOCLDY    67  66  97 CALM      29.99R FOG
BOLTON FIELD   NOT AVBL
RICKENBACK AFB NOT AVBL
NEWARK         MOCLDY    68  66  93 S3        29.98R
MARION         CLOUDY    70  68  93 W5        29.98S
LANCASTER      MOCLDY    69  67  93 SW3       30.00R
ZANESVILLE     CLOUDY    70  68  93 W3        29.98S
NEW PHILLY     CLOUDY    69  68  96 CALM      29.98F
$$


USA.gov is the U.S. government's official web portal to all federal, state and local government web resources and services.